RADUGA-1 7 [-]

Last updated on Oct. 25, 2020, 5:56 a.m. UTC

1 28194U 04010A   20297.97867236  .00000097  00000-0  00000+0 0  9992
2 28194  11.2682  36.0346 0001524 246.1141 125.0509  1.00236256 60721
UTC
Height (km)
Latitude
Longitude
Inclination
Orbital Period
UTC large
Height (km)
Speed (km/s)
/
Latitude / Longitude
Inclination (degrees)
Orbital Period (minutes)
Azimuth
Elevation
Range (km)
Doppler Factor
iOS Compass Heading
iOS Angle

Next 30 passes for location: Hong Kong

Rise time Rise Azimuth (degrees) Set time Set Azimuth (degrees) Duration Max altitude (degrees)

No matching passes for this satellites